EW7774 Weather Reports


time (UTC)temp
C
wind
direction
speed
KPH
gust
KPH
rain 1hr
cm
rain 24hr
cm
rain mn
cm
humidity
%
barometer
mb
20260507155339 12 86 0.0 3.2 0.00 0.51 0.43 63 1012.0
20260507155024 12 0 0.0 0.0 0.00 0.51 0.43 71 1012.2
20260507154837 12 46 0.0 0.0 0.00 0.51 0.43 66 1012.0
20260507154541 12 0 0.0 0.0 0.00 0.51 0.43 67 1012.3
20260507154333 12 46 0.0 0.0 0.00 0.51 0.43 67 1012.1
20260507154027 12 0 0.0 3.2 0.00 0.51 0.43 65 1012.4
20260507153833 12 45 0.0 3.2 0.00 0.51 0.43 66 1012.2
20260507153525 12 0 0.0 3.2 0.00 0.51 0.43 65 1012.5
20260507153347 12 45 0.0 3.2 0.00 0.51 0.43 65 1012.2
20260507153045 11 0 0.0 3.2 0.00 0.51 0.43 64 1012.5
20260507152845 12 71 0.0 0.0 0.00 0.51 0.43 66 1012.1
20260507152526 11 0 0.0 0.0 0.00 0.51 0.43 65 1012.4
20260507152404 12 71 0.0 0.0 0.00 0.51 0.43 68 1012.1
20260507152025 11 0 0.0 0.0 0.00 0.51 0.43 66 1012.4
20260507151837 11 71 0.0 0.0 0.00 0.51 0.43 69 1012.2
20260507151538 11 0 0.0 3.2 0.00 0.51 0.43 71 1012.4
20260507151352 11 65 0.0 3.2 0.00 0.51 0.43 66 1012.3
20260507151024 11 0 0.0 3.2 0.00 0.51 0.43 67 1012.6
20260507150848 11 58 0.0 3.2 0.00 0.51 0.43 67 1012.4
20260507150524 11 0 0.0 0.0 0.00 0.51 0.43 71 1012.6
20260507150341 11 13 0.0 0.0 0.00 0.51 0.43 71 1012.4
20260507150041 11 0 0.0 0.0 0.00 0.51 0.43 73 1012.7
20260507145843 11 334 0.0 0.0 0.00 0.64 0.43 74 1012.5
20260507145523 11 0 0.0 0.0 0.00 0.64 0.43 75 1012.8
20260507145339 11 17 0.0 0.0 0.00 0.64 0.43 73 1012.5
20260507145024 10 0 0.0 0.0 0.00 0.64 0.43 72 1012.8
20260507144838 11 17 0.0 0.0 0.00 0.64 0.43 71 1012.5
20260507144537 10 0 0.0 0.0 0.00 0.64 0.43 69 1012.8
20260507144413 11 15 0.0 0.0 0.00 0.64 0.43 76 1012.5
20260507144024 10 0 0.0 0.0 0.00 0.64 0.43 76 1012.9
20260507143846 10 15 0.0 0.0 0.00 0.64 0.43 74 1012.6
20260507143524 10 0 0.0 0.0 0.00 0.64 0.43 75 1012.9
20260507143339 10 15 0.0 0.0 0.00 0.64 0.43 73 1012.7
20260507143039 10 0 0.0 0.0 0.00 0.64 0.43 71 1013.1
20260507142853 10 94 0.0 0.0 0.00 0.64 0.43 75 1012.7
20260507142524 10 0 0.0 0.0 0.00 0.64 0.43 74 1013.0
20260507142349 10 103 0.0 0.0 0.00 0.64 0.43 84 1012.7
20260507142023 10 0 0.0 0.0 0.00 0.64 0.43 83 1013.0
20260507141843 10 118 0.0 0.0 0.00 0.64 0.43 83 1012.8
20260507141557 10 0 0.0 0.0 0.00 0.64 0.43 80 1013.2
20260507141337 10 118 0.0 0.0 0.00 0.64 0.43 81 1012.9
20260507141024 10 0 0.0 1.6 0.00 0.64 0.43 78 1013.3
20260507140852 10 118 0.0 1.6 0.00 0.64 0.43 80 1012.9
20260507140525 10 0 0.0 1.6 0.00 0.64 0.43 84 1013.2
20260507140325 10 118 0.0 1.6 0.00 0.64 0.43 84 1012.9
20260507140042 9 0 0.0 0.0 0.00 0.64 0.43 84 1013.2
20260507135845 10 175 0.0 0.0 0.00 0.99 0.43 82 1012.9
20260507135524 9 0 0.0 0.0 0.00 0.97 0.43 82 1013.4
20260507135343 10 175 0.0 0.0 0.00 0.99 0.43 83 1013.0
20260507135024 9 0 0.0 0.0 0.00 0.97 0.43 81 1013.4
20260507134837 10 175 0.0 0.0 0.00 0.99 0.43 82 1013.0
20260507134541 9 0 0.0 0.0 0.00 0.97 0.43 80 1013.3
20260507134334 10 175 0.0 0.0 0.00 0.99 0.43 84 1013.1
20260507134024 9 0 0.0 0.0 0.00 0.97 0.43 83 1013.2
20260507133848 10 73 0.0 0.0 0.00 0.99 0.43 84 1012.8
20260507133524 9 0 0.0 0.0 0.00 0.97 0.43 87 1013.2
20260507133344 10 73 0.0 0.0 0.00 0.99 0.43 87 1013.0
20260507133040 9 0 0.0 0.0 0.00 0.97 0.43 86 1013.4
20260507132845 10 73 0.0 0.0 0.00 0.99 0.43 87 1013.1
20260507132527 9 0 0.0 0.0 0.00 0.97 0.43 86 1013.4
20260507132339 10 73 0.0 0.0 0.00 0.99 0.43 86 1013.1
20260507132024 9 0 0.0 0.0 0.00 0.97 0.43 87 1013.3
20260507131853 10 73 0.0 0.0 0.00 0.99 0.43 88 1012.9
20260507131539 9 0 0.0 0.0 0.00 0.97 0.43 87 1013.1
20260507131334 10 64 0.0 0.0 0.00 0.99 0.43 89 1012.8
20260507131025 9 0 0.0 0.0 0.00 0.97 0.43 89 1013.3
20260507130830 10 64 0.0 0.0 0.00 0.99 0.43 90 1012.9
20260507130526 9 0 0.0 0.0 0.00 0.97 0.43 90 1013.3
20260507130348 10 64 0.0 0.0 0.00 0.99 0.43 90 1012.9
20260507130043 9 0 0.0 0.0 0.00 0.97 0.43 91 1013.3
20260507125844 10 64 0.0 0.0 0.00 1.12 0.43 91 1012.9
20260507125527 9 0 0.0 0.0 0.00 1.12 0.43 91 1013.4
20260507125359 10 64 0.0 0.0 0.00 1.12 0.43 91 1013.0
20260507125024 9 0 0.0 0.0 0.00 1.12 0.43 91 1013.4
20260507124835 10 64 0.0 0.0 0.00 1.12 0.43 91 1013.0
20260507124537 9 0 0.0 0.0 0.00 1.12 0.43 91 1013.4
20260507124353 10 64 526.3 0.0 0.00 1.12 0.43 92 1013.0
20260507124027 9 0 0.0 0.0 0.00 1.12 0.43 91 1013.3
20260507123828 10 0.0 0.0 0.00 1.12 0.43 91 1012.9
20260507123526 9 0 0.0 0.0 0.00 1.12 0.43 90 1013.3
20260507123346 10 0.0 0.0 0.00 1.12 0.43 91 1012.9
20260507123044 9 0 0.0 0.0 0.00 1.12 0.43 90 1013.3
20260507122844 10 0.0 0.0 0.00 1.12 0.43 90 1012.8
20260507122527 9 0 0.0 0.0 0.00 1.12 0.43 89 1013.2
20260507122344 10 0.0 0.0 0.00 1.12 0.43 90 1012.9
20260507122027 10 0.0 0.0 0.00 1.12 0.43 90 1013.2
20260507121840 10 0.0 0.0 0.00 1.12 0.43 90 1012.9
20260507121543 10 0.0 0.0 0.00 1.12 0.43 89 1013.2
20260507121334 10 0.0 0.0 0.00 1.12 0.43 90 1012.9
20260507121026 10 0.0 0.0 0.00 1.12 0.43 91 1013.1
20260507120850 10 0.0 0.0 0.00 1.12 0.43 92 1012.9
20260507120526 10 0.0 0.0 0.00 1.12 0.43 91 1013.1
20260507120344 10 0.0 0.0 0.00 1.12 0.43 92 1012.8
20260507120043 10 0.0 0.0 0.00 1.12 0.43 92 1013.1
20260507115838 10 0.0 0.0 0.00 1.12 0.43 92 1012.6
20260507115526 10 0.0 0.0 0.00 1.12 0.43 92 1012.9
20260507115334 10 0.0 0.0 0.00 1.12 0.43 93 1012.5
20260507115026 10 0.0 0.0 0.00 1.12 0.43 92 1012.7
20260507114835 11 0.0 0.0 0.00 1.12 0.43 93 1012.6
20260507114542 10 0.0 0.0 0.00 1.12 0.43 93 1012.8
20260507114411 11 0.0 0.0 0.00 1.12 0.43 94 1012.6
20260507114026 10 0.0 0.0 0.00 1.12 0.43 93 1012.9
20260507113845 11 0.0 0.0 0.00 1.12 0.43 94 1012.5
20260507113526 10 0.0 0.0 0.00 1.12 0.43 93 1012.6
20260507113342 11 0.0 0.0 0.00 1.12 0.43 94 1012.4
20260507113049 10 0.0 0.0 0.00 1.12 0.43 93 1012.6
20260507112842 11 0.0 0.0 0.00 1.12 0.43 94 1012.4
20260507112527 10 0.0 0.0 0.00 1.12 0.43 93 1012.6
20260507112341 11 0.0 0.0 0.00 1.12 0.43 94 1012.3
20260507112027 11 0.0 0.0 0.00 1.12 0.43 93 1012.5
20260507111841 11 0.0 0.0 0.00 1.12 0.43 94 1012.4
20260507111538 11 0.0 0.0 0.00 1.12 0.43 93 1012.6
20260507111342 11 0.0 0.0 0.00 1.12 0.43 94 1012.5
20260507111026 11 0.0 0.0 0.00 1.12 0.43 93 1012.8
20260507110857 11 0.0 0.0 0.00 1.12 0.43 94 1012.5
20260507110528 11 0.0 0.0 0.00 1.12 0.43 93 1012.8
20260507110331 11 0.0 0.0 0.00 1.12 0.43 94 1012.5
20260507110044 11 0.0 0.0 0.00 1.12 0.43 93 1012.6
20260507105909 11 0.0 0.0 0.00 1.12 0.43 94 1012.4
20260507105526 11 0.0 0.0 0.00 1.12 0.43 93 1012.5
20260507105343 11 0.0 0.0 0.00 1.12 0.43 94 1012.3
20260507105026 11 0.0 0.0 0.00 1.12 0.43 93 1012.6
20260507104836 11 0.0 0.0 0.00 1.12 0.43 94 1012.2
20260507104540 11 0.0 0.0 0.00 1.12 0.43 93 1012.4
20260507104350 11 0.0 0.0 0.00 1.12 0.43 94 1012.1
20260507104026 11 0.0 0.0 0.00 1.12 0.43 93 1012.3
20260507103845 11 0.0 0.0 0.00 1.12 0.43 94 1012.1
20260507103527 11 0.0 0.0 0.00 1.12 0.43 94 1012.3
20260507103340 11 0.0 0.0 0.00 1.12 0.43 94 1012.1
20260507103040 11 0.0 0.0 0.00 1.12 0.43 94 1012.3
20260507102831 11 0.0 0.0 0.00 1.12 0.43 94 1012.1
20260507102528 11 0.0 0.0 0.00 1.12 0.43 93 1012.2
20260507102329 11 0.0 0.0 0.00 1.12 0.43 94 1012.0
20260507102028 11 0.0 0.0 0.00 1.12 0.43 93 1012.2
20260507101828 11 0.0 0.0 0.00 1.12 0.43 94 1011.9
20260507101548 11 0.0 0.0 0.00 1.12 0.43 93 1012.1
20260507101346 11 0.0 0.0 0.00 1.12 0.43 94 1011.9
20260507101026 11 0.0 0.0 0.00 1.12 0.43 94 1012.0
20260507100829 11 0.0 0.0 0.00 1.12 0.43 94 1011.8
20260507100525 11 0.0 0.0 0.00 1.12 0.43 94 1012.1
20260507100348 11 0.0 0.0 0.00 1.12 0.43 94 1011.8
20260507100040 11 0.0 0.0 0.00 1.12 0.43 93 1011.9
20260507095838 11 0.0 0.0 0.00 1.12 0.43 94 1011.7
20260507095527 11 0.0 0.0 0.00 1.12 0.43 93 1011.9
20260507095337 11 0.0 0.0 0.00 1.12 0.43 94 1011.8
20260507095027 11 0.0 0.0 0.00 1.12 0.43 93 1012.1
20260507094836 11 0.0 0.0 0.00 1.12 0.43 94 1011.8
20260507094550 11 0.0 0.0 0.00 1.12 0.43 93 1011.9
20260507094328 11 0.0 0.0 0.00 1.12 0.43 94 1011.8
20260507094028 11 0.0 0.0 0.00 1.12 0.43 93 1012.1
20260507093829 11 0.0 0.0 0.00 1.12 0.43 94 1011.8
20260507093529 11 0.0 0.0 0.00 1.12 0.43 93 1012.1
20260507093345 11 0.0 0.0 0.00 1.12 0.43 94 1011.8
20260507093042 11 0.0 0.0 0.00 1.12 0.43 93 1011.8
20260507092844 11 0.0 0.0 0.00 1.12 0.43 94 1011.6
20260507092524 11 0.0 0.0 0.00 1.12 0.43 93 1011.7
20260507092344 11 0.0 0.0 0.00 1.12 0.43 94 1011.4
20260507092025 11 0.0 0.0 0.00 1.12 0.43 93 1011.6
20260507091903 11 0.0 0.0 0.00 1.12 0.43 94 1011.4
20260507091539 11 0.0 0.0 0.00 1.12 0.43 93 1011.8
20260507091341 11 0.0 0.0 0.00 1.12 0.43 94 1011.5
20260507091025 11 0.0 0.0 0.00 1.12 0.43 93 1011.8
20260507090838 11 0.0 0.0 0.00 1.12 0.43 94 1011.6
20260507090522 11 0.0 0.0 0.00 1.12 0.43 93 1011.8
20260507090336 11 0.0 0.0 0.00 1.12 0.43 94 1011.6
20260507090043 11 0.0 0.0 0.00 1.12 0.43 93 1012.0
20260507085836 11 0.0 0.0 0.00 1.12 0.43 94 1011.7
20260507085522 11 0.0 0.0 0.00 1.12 0.43 93 1012.0
20260507085356 11 0.0 0.0 0.00 1.12 0.43 94 1011.7
20260507085023 11 0.0 0.0 0.00 1.12 0.43 93 1011.7
20260507084834 11 0.0 0.0 0.00 1.12 0.43 94 1011.6
20260507084537 11 0.0 0.0 0.00 1.12 0.43 93 1011.7
20260507084333 11 0.0 0.0 0.00 1.12 0.43 94 1011.5
20260507084023 11 0.0 0.0 0.00 1.12 0.43 93 1011.8
20260507083837 11 0.0 0.0 0.00 1.12 0.43 94 1011.5
20260507083523 11 0.0 0.0 0.00 1.12 0.43 93 1011.7
20260507083355 11 0.0 0.0 0.00 1.12 0.43 93 1011.4
20260507083037 11 0.0 0.0 0.00 1.12 0.43 93 1011.6
20260507082853 11 0.0 0.0 0.00 1.12 0.43 93 1011.4
20260507082522 11 0.0 0.0 0.00 1.12 0.43 93 1011.6
20260507082330 11 0.0 0.0 0.00 1.12 0.43 93 1011.3
20260507082024 11 0.0 0.0 0.00 1.12 0.43 93 1011.6
20260507081830 11 0.0 0.0 0.00 1.12 0.43 93 1011.2
20260507081544 11 0.0 0.0 0.00 1.12 0.43 92 1011.4
20260507081328 11 0.0 0.0 0.00 1.12 0.43 93 1011.0
20260507081026 11 0.0 0.0 0.00 1.12 0.43 92 1011.2
20260507080849 11 0.0 0.0 0.00 1.12 0.43 93 1010.8
20260507080522 11 0.0 0.0 0.00 1.12 0.43 92 1011.1
20260507080344 11 0.0 0.0 0.00 1.12 0.43 93 1010.9
20260507080041 11 0.0 0.0 0.00 1.12 0.43 92 1011.1
20260507075839 11 0.0 0.0 0.00 1.12 0.43 93 1010.8
20260507075522 11 0.0 0.0 0.00 1.12 0.43 92 1011.1
20260507075332 11 0.0 0.0 0.00 1.12 0.43 92 1010.9
20260507075023 11 0.0 0.0 0.00 1.12 0.43 92 1011.1
20260507074852 11 0.0 0.0 0.00 1.12 0.43 92 1010.9
20260507074540 11 0.0 0.0 0.00 1.12 0.43 92 1011.0
20260507074328 11 0.0 0.0 0.00 1.12 0.43 92 1010.7
20260507074026 11 0.0 0.0 0.00 1.12 0.43 91 1011.0
20260507073848 11 0.0 0.0 0.00 1.12 0.43 92 1010.6
20260507073522 11 0.0 0.0 0.00 1.12 0.43 91 1010.9
20260507073347 11 0.0 0.0 0.00 1.12 0.43 92 1010.6
20260507073043 11 0.0 0.0 0.00 1.12 0.43 92 1010.9
20260507072840 12 0.0 0.0 0.00 1.12 0.43 92 1010.7
20260507072522 11 0.0 0.0 0.00 1.12 0.43 91 1011.0
20260507072333 12 0.0 0.0 0.00 1.12 0.43 92 1010.8
20260507072022 11 0.0 0.0 0.00 1.12 0.43 91 1011.0
20260507071848 12 0.0 0.0 0.00 1.12 0.43 92 1010.8
20260507071540 11 0.0 0.0 0.00 1.12 0.43 92 1010.9
20260507071341 12 0.0 0.0 0.00 1.12 0.43 92 1010.6
20260507071023 12 0.0 0.0 0.00 1.12 0.43 92 1010.8
20260507070855 12 0.0 0.0 0.00 1.12 0.43 92 1010.6
20260507070522 12 0.0 0.0 0.00 1.12 0.43 92 1010.9
20260507070328 12 0.0 0.0 0.00 1.12 0.43 92 1010.6
20260507070042 12 0.0 0.0 0.00 1.12 0.43 92 1011.0
20260507065833 12 0.0 0.0 0.00 1.12 0.43 93 1010.7
20260507065524 12 0.0 0.0 0.00 1.12 0.43 92 1011.0
20260507065348 12 0.0 0.0 0.00 1.12 0.43 93 1010.7
20260507065022 12 0.0 0.0 0.03 1.12 0.43 92 1011.0
20260507064905 12 0.0 0.0 0.03 1.12 0.43 93 1010.8
20260507064545 12 0.0 0.0 0.03 1.12 0.43 92 1011.0
20260507064358 12 0.0 0.0 0.03 1.12 0.43 93 1010.7
20260507064023 12 0.0 0.0 0.03 1.12 0.43 92 1011.0
20260507063855 12 0.0 0.0 0.03 1.12 0.43 93 1010.6
20260507063523 12 0.0 0.0 0.03 1.12 0.43 92 1011.0
20260507063327 12 0.0 0.0 0.03 1.12 0.43 93 1010.7
20260507063052 12 0.0 0.0 0.05 1.12 0.43 92 1011.1
20260507062848 12 0.0 0.0 0.05 1.12 0.43 92 1010.8
20260507062526 12 0.0 0.0 0.05 1.12 0.43 92 1011.2
20260507062344 12 0.0 0.0 0.05 1.12 0.43 92 1010.8
20260507062022 12 0.0 0.0 0.05 1.12 0.43 92 1010.9
20260507061844 12 0.0 0.0 0.05 1.12 0.43 92 1010.5
20260507061540 12 0.0 0.0 0.05 1.12 0.43 92 1010.8
20260507061029 12 0.0 0.0 0.05 1.12 0.43 92 1010.8
20260507060904 12 0.0 0.0 0.05 1.12 0.43 92 1010.6
20260507060523 12 0.0 0.0 0.05 1.12 0.43 92 1010.9
20260507060357 13 0.0 0.0 0.05 1.12 0.43 92 1010.5
20260507060037 12 0.0 0.0 0.05 1.12 0.43 92 1010.9
20260507055851 13 0.0 0.0 0.08 1.12 0.43 92 1010.6
20260507055522 12 0.0 0.0 0.10 1.12 0.43 92 1010.9
20260507055403 13 0.0 0.0 0.10 1.09 0.41 92 1010.6
20260507055024 12 0.0 0.0 0.18 1.09 0.41 91 1011.2
20260507054839 13 0.0 0.0 0.23 1.09 0.41 92 1010.8
20260507054540 12 0.0 0.0 0.25 1.09 0.41 91 1011.0
20260507054028 12 0.0 0.0 0.41 1.09 0.41 91 1011.0
20260507053837 13 0.0 0.0 0.41 1.09 0.41 92 1010.7
20260507053526 13 0.0 0.0 0.41 1.09 0.41 91 1011.3
20260507053338 13 0.0 0.0 0.41 1.09 0.41 91 1010.8
20260507053039 13 0.0 0.0 0.38 1.07 0.38 91 1011.3
20260507052831 13 0.0 0.0 0.38 1.07 0.38 91 1010.7
20260507052523 13 0.0 0.0 0.38 1.07 0.38 91 1011.1
20260507052409 13 0.0 0.0 0.38 1.07 0.38 91 1010.8
20260507052026 13 0.0 0.0 0.38 1.07 0.38 90 1011.3
20260507051842 13 0.0 0.0 0.38 1.07 0.38 90 1010.7
20260507051539 13 0.0 0.0 0.38 1.07 0.38 90 1010.9
20260507051336 13 0.0 0.0 0.38 1.07 0.38 90 1010.6
20260507051028 13 0.0 0.0 0.38 1.07 0.38 89 1011.0
20260507050851 13 0.0 0.0 0.38 1.07 0.38 89 1010.8
20260507050525 13 0.0 0.0 0.38 1.07 0.38 88 1011.1
20260507050344 13 0.0 0.0 0.38 1.07 0.38 88 1010.7
20260507050038 13 0.0 0.0 0.38 1.07 0.38 87 1011.2
20260507045901 14 0.0 0.0 0.36 1.04 0.36 88 1011.1
20260507045527 14 0.0 0.0 0.33 1.02 0.33 87 1011.4
20260507045338 14 0.0 0.0 0.30 0.99 0.30 87 1011.2
20260507045027 14 0.0 0.0 0.23 0.91 0.23 86 1011.6
20260507044830 15 0.0 0.0 0.18 0.86 0.18 85 1011.1
20260507044546 14 0.0 0.0 0.13 0.81 0.13 84 1011.3
20260507044411 15 0.0 0.0 0.08 0.76 0.08 83 1010.9
20260507044026 15 0.0 0.0 0.00 0.69 0.00 81 1011.1
20260507043845 15 0.0 0.0 0.00 0.69 0.00 81 1010.5
20260507043526 15 0.0 0.0 0.00 0.69 0.00 80 1010.9
20260507043343 15 0.0 0.0 0.00 0.69 0.00 80 1010.3
20260507043041 15 0.0 0.0 0.00 0.69 0.00 80 1011.0
20260507042856 15 0.0 0.0 0.00 0.69 0.00 79 1010.8
20260507042527 15 0.0 0.0 0.00 0.69 0.00 79 1011.2
20260507042333 15 0.0 0.0 0.00 0.69 0.00 79 1010.9
20260507042027 15 0.0 0.0 0.00 0.69 0.00 78 1011.4
20260507041833 15 0.0 0.0 0.00 0.69 0.00 78 1011.1
20260507041544 15 0.0 0.0 0.00 0.69 0.00 78 1011.3
20260507041331 16 0.0 0.0 0.00 0.69 0.00 78 1011.0
20260507041027 15 0.0 0.0 0.00 0.69 0.00 77 1011.1
20260507040830 16 0.0 0.0 0.00 0.69 0.00 78 1010.8
20260507040527 15 0.0 0.0 0.00 0.69 0.00 78 1011.0
20260507040349 16 0.0 0.0 0.00 0.69 0.00 78 1010.7
20260507040037 15 0.0 0.0 0.00 0.69 0.00 77 1010.9
20260507035847 16 0.0 0.0 0.00 0.69 0.69 78 1010.6
20260507035526 16 0.0 0.0 0.00 0.69 0.69 78 1010.7
20260507035339 16 0.0 0.0 0.00 0.69 0.69 79 1010.2
20260507035027 16 0.0 0.0 0.00 0.69 0.69 77 1010.7
20260507034834 16 0.0 0.0 0.00 0.69 0.69 78 1010.2
20260507034557 16 0.0 0.0 0.00 0.69 0.69 78 1010.6
20260507034326 16 0.0 0.0 0.00 0.69 0.69 79 1010.1
20260507034027 16 0.0 0.0 0.00 0.69 0.69 77 1010.6
20260507033906 16 0.0 0.0 0.00 0.69 0.69 77 1010.3
20260507033526 16 0.0 0.0 0.00 0.69 0.69 78 1010.7
20260507033342 16 0.0 0.0 0.00 0.69 0.69 78 1010.3
20260507033101 16 0.0 0.0 0.00 0.69 0.69 77 1010.5
20260507032838 16 0.0 0.0 0.00 0.69 0.69 78 1010.3
20260507032527 16 0.0 0.0 0.00 0.69 0.69 77 1010.7
20260507032350 16 0.0 0.0 0.00 0.69 0.69 78 1010.5
20260507032027 16 0.0 0.0 0.00 0.69 0.69 78 1010.7
20260507031848 16 0.0 0.0 0.00 0.69 0.69 79 1010.3
20260507031540 16 0.0 0.0 0.00 0.69 0.69 78 1010.6
20260507031327 16 0.0 0.0 0.00 0.69 0.69 79 1010.3
20260507031027 16 0.0 0.0 0.00 0.69 0.69 78 1010.5
20260507030826 17 0.0 0.0 0.00 0.69 0.69 78 1010.2
20260507030527 16 0.0 0.0 0.00 0.69 0.69 78 1010.4
20260507030407 17 0.0 0.0 0.00 0.69 0.69 78 1010.1
20260507030038 16 0.0 0.0 0.00 0.69 0.69 77 1010.2
20260507025843 17 0.0 0.0 0.00 0.69 0.69 79 1009.7
20260507025525 16 0.0 0.0 0.00 0.69 0.69 78 1010.0
20260507025338 17 0.0 0.0 0.00 0.69 0.69 78 1009.7
20260507025027 16 0.0 0.0 0.00 0.69 0.69 78 1010.2
20260507024834 17 0.0 0.0 0.00 0.69 0.69 79 1009.9
20260507024545 17 0.0 0.0 0.00 0.69 0.69 78 1010.2
20260507024353 17 0.0 0.0 0.00 0.69 0.69 78 1009.9
20260507024024 17 0.0 0.0 0.00 0.69 0.69 78 1010.3
20260507023849 17 0.0 0.0 0.00 0.69 0.69 78 1010.1
20260507023524 17 0.0 0.0 0.00 0.69 0.69 77 1010.2
20260507023344 17 0.0 0.0 0.00 0.69 0.69 77 1009.8
20260507023037 17 0.0 0.0 0.00 0.69 0.69 76 1010.0
20260507022838 17 0.0 0.0 0.00 0.69 0.69 77 1009.7
20260507022525 17 0.0 0.0 0.00 0.69 0.69 77 1010.1
20260507022335 17 0.0 0.0 0.00 0.69 0.69 78 1009.8
20260507022025 17 0.0 0.0 0.00 0.69 0.69 77 1010.1
20260507021851 17 0.0 0.0 0.00 0.69 0.69 79 1009.9
20260507021538 17 0.0 0.0 0.00 0.69 0.69 78 1010.2
20260507021346 17 0.0 0.0 0.00 0.69 0.69 80 1009.8
20260507021025 17 0.0 0.0 0.00 0.69 0.69 79 1010.0
20260507020838 17 0.0 0.0 0.00 0.69 0.69 80 1009.6
20260507020524 17 0.0 0.0 0.00 0.69 0.69 79 1009.9
20260507020353 17 0.0 0.0 0.00 0.69 0.69 79 1009.4
20260507020040 17 0.0 0.0 0.00 0.69 0.69 79 1009.7
20260507015826 17 0.0 0.0 0.00 0.69 0.69 80 1009.3
20260507015524 17 0.0 0.0 0.00 0.69 0.69 79 1009.6
20260507015345 18 0.0 0.0 0.00 0.69 0.69 80 1009.3
20260507015026 17 0.0 0.0 0.00 0.69 0.69 80 1009.8
20260507014844 18 0.0 0.0 0.00 0.69 0.69 81 1009.5
20260507014538 17 0.0 0.0 0.00 0.69 0.69 79 1009.8
20260507014344 18 0.0 0.0 0.00 0.69 0.69 79 1009.4
20260507014024 18 0.0 0.0 0.00 0.69 0.69 80 1009.8
20260507013842 18 0.0 0.0 0.00 0.69 0.69 80 1009.5
20260507013524 18 0.0 0.0 0.00 0.69 0.69 79 1010.0
20260507013342 18 0.0 0.0 0.00 0.69 0.69 80 1009.7
20260507013039 18 0.0 0.0 0.00 0.69 0.69 80 1010.1
20260507012840 18 0.0 0.0 0.00 0.69 0.69 81 1009.7
20260507012523 18 0.0 0.0 0.00 0.69 0.69 81 1010.0
20260507012338 18 0.0 0.0 0.00 0.69 0.69 81 1009.6
20260507012025 18 0.0 0.0 0.00 0.69 0.69 82 1009.8
20260507011842 18 0.0 0.0 0.00 0.69 0.69 82 1009.4
20260507011539 18 0.0 0.0 0.00 0.69 0.69 82 1009.9
20260507011358 18 0.0 0.0 0.00 0.69 0.69 83 1009.5
20260507011024 18 0.0 0.0 0.00 0.69 0.69 82 1009.8
20260507010856 18 0.0 0.0 0.00 0.69 0.69 84 1009.3
20260507010528 18 0.0 0.0 0.00 0.69 0.69 84 1009.8
20260507010349 18 0.0 0.0 0.00 0.69 0.69 85 1009.5
20260507010040 18 0.0 0.0 0.00 0.69 0.69 86 1010.1
20260507005844 18 0.0 0.0 0.00 0.69 0.69 86 1009.6
20260507005525 18 0.0 0.0 0.00 0.69 0.69 86 1010.0
20260507005338 18 0.0 0.0 0.00 0.69 0.69 86 1009.4
20260507005024 18 0.0 0.0 0.00 0.69 0.69 85 1009.7
20260507004852 18 0.0 0.0 0.00 0.69 0.69 86 1009.2
20260507004541 18 0.0 0.0 0.00 0.69 0.69 85 1009.6
20260507004331 19 0.0 0.0 0.00 0.69 0.69 85 1009.0
20260507004024 18 0.0 0.0 0.00 0.69 0.69 85 1009.4
20260507003830 19 0.0 0.0 0.00 0.69 0.69 85 1009.0
20260507003526 18 0.0 0.0 0.00 0.69 0.69 84 1009.4
20260507003331 19 0.0 0.0 0.00 0.69 0.69 85 1009.0
20260507003038 18 0.0 0.0 0.00 0.69 0.69 84 1009.5
20260507002828 19 0.0 0.0 0.00 0.69 0.69 85 1008.9
20260507002524 18 0.0 0.0 0.00 0.69 0.69 84 1009.3
20260507002328 19 0.0 0.0 0.00 0.69 0.69 84 1008.9
20260507002024 18 0.0 0.0 0.00 0.69 0.69 84 1009.1
20260507001827 19 0.0 0.0 0.00 0.69 0.69 84 1008.8
20260507001603 18 0.0 0.0 0.00 0.69 0.69 84 1009.2
20260507001326 19 0.0 0.0 0.00 0.69 0.69 84 1008.7
20260507001023 18 0.0 0.0 0.00 0.69 0.69 83 1009.0
20260507000845 19 0.0 0.0 0.00 0.69 0.69 84 1008.6
20260507000524 18 0.0 0.0 0.00 0.69 0.69 84 1009.1
20260507000345 19 0.0 0.0 0.00 0.69 0.69 84 1008.6
20260507000037 18 0.0 0.0 0.00 0.69 0.69 83 1009.1
20260506235844 19 0.0 0.0 0.00 0.69 0.69 84 1008.6
20260506235523 19 0.0 0.0 0.00 0.69 0.69 84 1009.0
20260506235327 19 0.0 0.0 0.00 0.69 0.69 84 1008.5
20260506235025 19 0.0 0.0 0.00 0.69 0.69 84 1009.0
20260506234826 19 0.0 0.0 0.00 0.69 0.69 84 1008.5
20260506234547 19 0.0 0.0 0.00 0.69 0.69 84 1009.1
20260506234326 19 0.0 0.0 0.00 0.69 0.69 84 1008.6
20260506234022 19 0.0 0.0 0.00 0.69 0.69 84 1008.9
20260506233847 20 0.0 0.0 0.00 0.69 0.69 84 1008.4
20260506233523 19 0.0 0.0 0.00 0.69 0.69 83 1009.0
20260506233405 20 0.0 0.0 0.00 0.69 0.69 83 1008.3
20260506233042 19 0.0 0.0 0.00 0.69 0.69 82 1008.7
20260506232844 20 0.0 0.0 0.00 0.69 0.69 83 1008.2
20260506232522 19 0.0 0.0 0.00 0.69 0.69 82 1008.9
20260506232345 20 0.0 0.0 0.00 0.69 0.69 83 1008.4
20260506232024 20 0.0 0.0 0.00 0.69 0.69 82 1008.8
20260506231837 20 0.0 0.0 0.00 0.69 0.69 83 1008.4
20260506231543 20 0.0 0.0 0.00 0.69 0.69 82 1008.8
20260506231335 20 0.0 0.0 0.00 0.69 0.69 82 1008.1
20260506231022 20 0.0 0.0 0.00 0.69 0.69 82 1008.6
20260506230849 20 198 0.0 0.0 0.00 0.69 0.69 82 1008.1
20260506230522 20 0.0 0.0 0.00 0.69 0.69 82 1008.6
20260506230038 20 0 0.0 0.0 0.00 0.69 0.69 82 1008.6
20260506225913 20 198 0.0 0.0 0.00 0.69 0.69 82 1008.1
20260506225524 20 0 0.0 0.0 0.00 0.69 0.69 81 1008.5
20260506225343 20 183 0.0 0.0 0.00 0.69 0.69 82 1008.1
20260506225023 20 0 0.0 0.0 0.00 0.69 0.69 82 1008.5
20260506224835 20 183 0.0 0.0 0.00 0.69 0.69 83 1008.0
20260506224547 20 0 0.0 0.0 0.00 0.69 0.69 82 1008.4
20260506224355 20 183 0.0 0.0 0.00 0.69 0.69 83 1008.1
20260506224024 20 0 0.0 0.0 0.00 0.69 0.69 81 1008.5
20260506223846 20 183 0.0 0.0 0.00 0.69 0.69 82 1008.1
20260506223522 20 0 0.0 0.0 0.00 0.69 0.69 81 1008.6
20260506223345 20 183 0.0 0.0 0.00 0.69 0.69 81 1008.0
20260506223037 20 0 0.0 3.2 0.00 0.69 0.69 80 1008.4
20260506222837 20 169 0.0 3.2 0.00 0.69 0.69 81 1008.0
20260506222523 20 0 0.0 3.2 0.00 0.69 0.69 81 1008.4
20260506222353 20 176 0.0 3.2 0.00 0.69 0.69 81 1007.9
20260506222023 20 0 0.0 3.2 0.00 0.69 0.69 80 1008.4
20260506221852 20 177 0.0 3.2 0.00 0.69 0.69 81 1007.9
20260506221536 20 0 0.0 3.2 0.00 0.69 0.69 80 1008.3
20260506221345 20 177 0.0 3.2 0.00 0.69 0.69 82 1007.9
20260506221025 20 0 0.0 3.2 0.00 0.69 0.69 80 1008.3
20260506220843 20 178 0.0 0.0 0.00 0.69 0.69 81 1008.0
20260506220522 20 0 0.0 4.8 0.00 0.69 0.69 81 1008.4
20260506220335 20 159 0.0 1.6 0.00 0.69 0.69 80 1007.9
20260506220044 20 0 0.0 4.8 0.00 0.69 0.69 81 1008.3
20260506215853 20 159 0.0 4.8 0.00 0.69 0.69 82 1007.9
20260506215524 20 0 0.0 4.8 0.00 0.69 0.69 81 1008.3
20260506215330 20 173 0.0 0.0 0.00 0.69 0.69 81 1008.0
20260506215024 20 0 0.0 4.8 0.00 0.69 0.69 80 1008.3
20260506214846 20 174 0.0 4.8 0.00 0.69 0.69 81 1008.1
20260506214537 20 0 0.0 4.8 0.00 0.69 0.69 80 1008.4
20260506214339 20 169 0.0 4.8 0.00 0.69 0.69 81 1008.0
20260506214026 20 0 0.0 1.6 0.00 0.69 0.69 80 1008.4
20260506213834 20 166 0.0 1.6 0.00 0.69 0.69 81 1007.9
20260506213522 20 0 0.0 3.2 0.00 0.69 0.69 80 1008.3
20260506213349 20 179 0.0 3.2 0.00 0.69 0.69 80 1008.0
20260506213037 20 0 0.0 12.9 0.00 0.69 0.69 79 1008.3
20260506212840 20 142 0.0 11.3 0.00 0.69 0.69 80 1007.8
20260506212527 20 0 0.0 12.9 0.00 0.69 0.69 80 1008.2
20260506212338 20 168 3.2 11.3 0.00 0.69 0.69 80 1007.8
20260506212025 20 252 0.0 6.4 0.00 0.69 0.69 80 1008.2
20260506211855 20 183 1.6 6.4 0.00 0.69 0.69 80 1007.8
20260506211542 20 0 0.0 6.4 0.00 0.69 0.69 80 1008.1
20260506211346 20 190 0.0 6.4 0.00 0.69 0.69 80 1007.7
20260506211023 20 0 0.0 8.0 0.00 0.69 0.69 80 1008.0
20260506210902 20 175 1.6 8.0 0.00 0.69 0.69 80 1007.7
20260506210525 20 0 0.0 14.5 0.00 0.69 0.69 79 1008.0
20260506210331 20 173 0.0 12.9 0.00 0.69 0.69 80 1007.7
20260506210037 20 0 1.6 14.5 0.00 0.69 0.69 79 1007.9
20260506205835 20 171 3.2 12.9 0.00 0.69 0.69 80 1007.6
20260506205524 20 202 0.0 12.9 0.00 0.69 0.69 80 1007.8
20260506205330 20 188 0.0 11.3 0.00 0.69 0.69 80 1007.3
20260506205024 20 0 0.0 12.9 0.00 0.69 0.69 80 1007.8
20260506204831 20 212 1.6 11.3 0.00 0.69 0.69 80 1007.4
20260506204539 20 0 0.0 9.7 0.00 0.69 0.69 80 1007.8
20260506204330 20 156 0.0 9.7 0.00 0.69 0.69 81 1007.5
20260506204024 20 0 0.0 9.7 0.00 0.69 0.69 80 1007.9
20260506203829 20 179 1.6 8.0 0.00 0.69 0.69 80 1007.5
20260506203524 20 0 0.0 6.4 0.00 0.69 0.69 79 1007.7
20260506203350 20 169 0.0 6.4 0.00 0.69 0.69 80 1007.4
20260506203037 20 0 0.0 8.0 0.00 0.69 0.69 79 1007.7
20260506202845 20 201 1.6 8.0 0.00 0.69 0.69 80 1007.3
20260506202524 20 0 0.0 8.0 0.00 0.69 0.69 80 1007.7
20260506202406 20 160 1.6 8.0 0.00 0.69 0.69 80 1007.6
20260506202025 20 0 0.0 12.9 0.00 0.69 0.69 79 1008.0
20260506201841 20 159 0.0 11.3 0.00 0.69 0.69 79 1007.6
20260506201543 20 232 0.0 12.9 0.00 0.69 0.69 79 1007.9
20260506201345 20 269 3.2 11.3 0.00 0.69 0.69 80 1007.6
20260506201024 20 0 0.0 6.4 0.00 0.69 0.69 80 1007.9
20260506200906 20 5 1.6 6.4 0.00 0.69 0.69 80 1007.5
20260506200524 20 0 0.0 6.4 0.00 0.69 0.69 79 1008.0
20260506200343 20 211 0.0 4.8 0.00 0.69 0.69 80 1007.6
20260506200041 20 0 0.0 4.8 0.00 0.69 0.69 80 1007.9
20260506195902 20 185 0.0 4.8 0.00 0.69 0.69 80 1007.6
20260506195526 20 0 0.0 9.7 0.00 0.69 0.69 80 1008.0
20260506195357 20 230 0.0 8.0 0.00 0.69 0.69 80 1007.6
20260506195025 20 0 0.0 11.3 0.00 0.69 0.69 79 1007.9
20260506194835 20 200 1.6 9.7 0.00 0.69 0.69 80 1007.5
20260506194544 20 0 0.0 11.3 0.00 0.69 0.69 80 1008.0
20260506194356 20 165 3.2 9.7 0.00 0.69 0.69 81 1007.7
20260506194028 20 0 0.0 4.8 0.00 0.69 0.69 80 1008.2
20260506193852 20 221 0.0 4.8 0.00 0.69 0.69 79 1007.7
20260506193524 20 253 0.0 6.4 0.00 0.69 0.69 81 1008.1
20260506193348 20 173 0.0 6.4 0.00 0.69 0.69 81 1007.6
20260506193043 19 216 0.0 11.3 0.00 0.69 0.69 81 1008.0
20260506192845 20 193 0.0 9.7 0.00 0.69 0.69 80 1007.7
20260506192524 19 0 0.0 11.3 0.00 0.69 0.69 80 1008.1
20260506192345 20 215 1.6 9.7 0.00 0.69 0.69 80 1007.8
20260506192024 19 0 0.0 12.9 0.00 0.69 0.69 80 1008.1
20260506191843 20 109 1.6 11.3 0.00 0.69 0.69 82 1007.7
20260506191544 19 0 1.6 12.9 0.00 0.69 0.69 79 1008.2
20260506191340 20 181 1.6 11.3 0.00 0.69 0.69 81 1007.7
20260506191025 19 0 3.2 12.9 0.00 0.69 0.69 82 1008.2
20260506190836 19 125 1.6 6.4 0.00 0.69 0.69 82 1007.8
20260506190524 19 0 0.0 6.4 0.00 0.69 0.69 82 1008.3
20260506190336 19 194 0.0 6.4 0.00 0.69 0.69 82 1007.8
20260506190044 18 0 0.0 12.9 0.00 0.69 0.69 81 1008.2
20260506185834 19 188 0.0 11.3 0.00 0.69 0.69 81 1007.9
20260506185524 18 0 0.0 12.9 0.00 0.69 0.69 81 1008.3
20260506185336 19 258 0.0 11.3 0.00 0.69 0.69 82 1008.0
20260506185025 18 0 0.0 3.2 0.00 0.69 0.69 82 1008.3
20260506184833 19 264 0.0 3.2 0.00 0.69 0.69 84 1008.1
20260506184542 18 0 0.0 8.0 0.00 0.69 0.69 82 1008.5
20260506184335 18 194 0.0 8.0 0.00 0.69 0.69 82 1008.0
20260506184024 18 0 0.0 8.0 0.00 0.69 0.69 82 1008.5
20260506183834 18 217 0.0 8.0 0.00 0.69 0.69 84 1008.0
20260506183527 18 0 0.0 6.4 0.00 0.69 0.69 84 1008.5
20260506183334 18 237 0.0 6.4 0.00 0.69 0.69 85 1008.1
20260506183041 18 0 0.0 0.0 0.00 0.69 0.69 83 1008.7
20260506182832 18 237 0.0 0.0 0.00 0.69 0.69 83 1008.4
20260506182523 18 0 0.0 11.3 0.00 0.69 0.69 84 1008.8
20260506182327 18 240 0.0 11.3 0.00 0.69 0.69 84 1008.4
20260506182026 18 0 0.0 11.3 0.00 0.69 0.69 84 1008.7
20260506181850 18 219 0.0 11.3 0.00 0.69 0.69 84 1008.3
20260506181552 18 183 0.0 11.3 0.00 0.69 0.69 83 1008.6
20260506181345 18 201 1.6 9.7 0.00 0.69 0.69 85 1008.3
20260506181026 18 0 0.0 12.9 0.00 0.69 0.69 83 1008.6
20260506180846 18 228 1.6 11.3 0.00 0.69 0.69 84 1008.3
20260506180526 17 0 0.0 12.9 0.00 0.69 0.69 84 1008.7
20260506180344 18 219 3.2 11.3 0.00 0.69 0.69 84 1008.4
20260506180037 17 266 0.0 12.9 0.00 0.69 0.69 84 1008.8
20260506175846 18 192 0.0 11.3 0.00 0.69 0.69 84 1008.6
20260506175528 17 226 1.6 12.9 0.00 0.69 0.69 85 1009.0
20260506175347 18 282 1.6 11.3 0.00 0.69 0.69 86 1008.5
20260506175024 17 0 0.0 12.9 0.00 0.69 0.69 85 1008.9
20260506174842 17 228 1.6 11.3 0.00 0.69 0.69 85 1008.5
20260506174542 17 0 0.0 19.3 0.00 0.69 0.69 85 1009.0
20260506174339 17 215 0.0 8.0 0.00 0.69 0.69 85 1008.6
20260506174024 17 6 0.0 19.3 0.00 0.69 0.69 86 1009.0
20260506173835 17 226 1.6 19.3 0.00 0.69 0.69 86 1008.6
20260506173526 17 0 1.6 19.3 0.00 0.69 0.69 87 1009.0
20260506173339 17 166 0.0 9.7 0.00 0.69 0.69 87 1008.6
20260506173043 17 0 1.6 11.3 0.00 0.69 0.69 87 1009.0
20260506172837 17 306 3.2 9.7 0.00 0.69 0.69 89 1008.6
20260506172525 17 0 1.6 9.7 0.00 0.69 0.69 87 1009.1
20260506172333 17 142 1.6 9.7 0.00 0.69 0.69 88 1008.7
20260506172024 17 141 0.0 9.7 0.00 0.69 0.69 88 1009.1
20260506171911 17 183 0.0 9.7 0.00 0.69 0.69 88 1008.6
20260506171546 17 0 0.0 19.3 0.00 0.69 0.69 87 1009.1
20260506171347 17 230 0.0 17.7 0.00 0.69 0.69 88 1008.7
20260506171025 16 0 1.6 19.3 0.00 0.69 0.69 88 1009.2
20260506170843 17 219 3.2 17.7 0.00 0.69 0.69 88 1008.8
20260506170523 16 255 0.0 14.5 0.00 0.69 0.69 89 1009.3
20260506170404 17 115 3.2 12.9 0.00 0.69 0.69 89 1008.8
20260506170041 16 0 1.6 12.9 0.00 0.69 0.69 89 1009.2
20260506165839 17 167 1.6 11.3 0.00 0.69 0.69 89 1008.9
20260506165524 16 0 0.0 9.7 0.00 0.69 0.69 89 1009.4
20260506165401 17 260 1.6 9.7 0.00 0.69 0.69 90 1009.0
20260506165024 16 0 0.0 20.9 0.00 0.69 0.69 91 1009.2
20260506164839 17 198 3.2 19.3 0.00 0.69 0.69 91 1008.9
20260506164538 16 0 0.0 20.9 0.00 0.69 0.69 90 1009.2
20260506164338 16 244 0.0 19.3 0.00 0.69 0.69 90 1008.9
20260506164024 16 223 1.6 20.9 0.00 0.69 0.69 90 1009.1
20260506163855 16 236 0.0 12.9 0.00 0.69 0.69 90 1008.9
20260506163524 16 0 0.0 17.7 0.00 0.69 0.69 90 1009.2
20260506163333 16 232 1.6 16.1 0.00 0.69 0.69 91 1009.0
20260506163043 16 0 0.0 17.7 0.00 0.69 0.69 91 1009.2
20260506162851 16 173 0.0 16.1 0.00 0.69 0.69 92 1009.0
20260506162525 16 185 1.6 12.9 0.00 0.69 0.69 91 1009.4
20260506162347 16 164 1.6 11.3 0.00 0.69 0.69 92 1009.0
20260506162025 16 0 0.0 4.8 0.03 0.69 0.69 92 1009.3
20260506161847 16 179 0.0 4.8 0.03 0.69 0.69 92 1009.0
20260506161537 16 0 0.0 4.8 0.03 0.69 0.69 91 1009.3
20260506161347 16 181 0.0 4.8 0.03 0.69 0.69 92 1008.9
20260506161024 16 17 0.0 14.5 0.03 0.69 0.69 92 1009.3
20260506160843 16 184 0.0 12.9 0.03 0.69 0.69 93 1009.1
20260506160524 15 0 0.0 14.5 0.05 0.69 0.69 92 1009.4
20260506160343 16 234 1.6 12.9 0.05 0.69 0.69 93 1009.0
20260506160041 15 0 0.0 14.5 0.08 0.69 0.69 92 1009.4
20260506155844 16 196 1.6 12.9 0.08 0.69 0.69 93 1009.0
20260506155524 15 139 0.0 14.5 0.08 0.69 0.69 92 1009.4